KD0SBN Weather Reports


time (UTC)temp
F
wind
direction
speed
knots
gust
knots
rain 1hr
in
rain 24hr
in
rain mn
in
humidity
%
barometer
mb
20260510224031 69 70 9.6 12.2 0.00 0.00 0.00 45 1022.9
20260510223529 69 87 7.0 8.7 0.00 0.00 0.00 44 1022.7
20260510223026 69 81 5.2 9.6 0.00 0.00 0.00 46 1022.7
20260510222524 68 95 2.6 9.6 0.00 0.00 0.00 45 1022.9
20260510222020 67 71 3.5 7.0 0.00 0.00 0.00 46 1022.8
20260510221515 68 119 7.0 14.8 0.00 0.00 0.00 45 1023.2
20260510221012 67 83 2.6 6.1 0.00 0.00 0.00 45 1022.9
20260510220508 67 92 7.8 8.7 0.00 0.00 0.00 46 1023.0
20260510220004 68 76 7.0 9.6 0.00 0.00 0.00 46 1023.3
20260510215502 67 79 4.3 7.0 0.00 0.00 0.00 48 1023.0
20260510214959 68 95 5.2 12.2 0.00 0.00 0.00 46 1023.2
20260510214456 68 48 0.9 7.8 0.00 0.00 0.00 46 1023.3
20260510213952 67 134 0.9 5.2 0.00 0.00 0.00 45 1023.3
20260510213450 67 81 7.0 9.6 0.00 0.00 0.00 47 1023.5
20260510212946 68 121 6.1 11.3 0.00 0.00 0.00 47 1023.5
20260510212443 67 61 6.1 9.6 0.00 0.00 0.00 47 1023.5
20260510211939 68 125 0.0 5.2 0.00 0.00 0.00 46 1023.6
20260510211437 66 80 7.0 8.7 0.00 0.00 0.00 47 1023.9
20260510210937 66 70 7.8 11.3 0.00 0.00 0.00 50 1023.9
20260510210433 67 153 4.3 7.0 0.00 0.00 0.00 48 1023.6
20260510205932 66 84 1.7 3.5 0.00 0.00 0.00 48 1023.9
20260510205427 67 67 6.1 8.7 0.00 0.00 0.00 48 1023.7
20260510204923 67 42 2.6 6.1 0.00 0.00 0.00 47 1023.9
20260510204420 67 125 3.5 7.8 0.00 0.00 0.00 47 1024.0
20260510203916 67 75 7.0 8.7 0.00 0.00 0.00 50 1024.1
20260510203414 67 57 7.8 13.0 0.00 0.00 0.00 50 1024.2
20260510202914 68 62 5.2 9.6 0.00 0.00 0.00 48 1024.2
20260510202410 66 78 7.0 8.7 0.00 0.00 0.00 51 1024.1
20260510201907 68 119 0.9 3.5 0.00 0.00 0.00 47 1024.2
20260510201404 67 73 5.2 8.7 0.00 0.00 0.00 49 1024.3
20260510200900 67 81 5.2 7.0 0.00 0.00 0.00 50 1024.1
20260510200359 68 86 7.8 8.7 0.00 0.00 0.00 50 1024.1
20260510195854 66 32 0.0 2.6 0.00 0.00 0.00 48 1024.4
20260510195351 66 283 0.9 7.8 0.00 0.00 0.00 50 1024.4
20260510194846 65 129 2.6 7.0 0.00 0.00 0.00 50 1024.4
20260510194343 65 110 3.5 7.8 0.00 0.00 0.00 53 1024.3
20260510193838 65 142 4.3 6.1 0.00 0.00 0.00 51 1024.3
20260510193334 65 73 8.7 11.3 0.00 0.00 0.00 52 1024.4
20260510192829 65 99 7.0 8.7 0.00 0.00 0.00 55 1024.4
20260510192325 64 107 5.2 8.7 0.00 0.00 0.00 54 1024.6
20260510191821 63 80 7.0 8.7 0.00 0.00 0.00 56 1024.7
20260510191317 63 50 1.7 5.2 0.00 0.00 0.00 56 1024.4
20260510190816 63 95 5.2 7.0 0.00 0.00 0.00 56 1024.7
20260510190313 64 73 5.2 9.6 0.00 0.00 0.00 56 1024.8
20260510185809 64 36 2.6 5.2 0.00 0.00 0.00 52 1024.7
20260510185307 65 141 3.5 6.1 0.00 0.00 0.00 55 1024.4
20260510184804 65 125 3.5 5.2 0.00 0.00 0.00 51 1024.8
20260510184301 64 87 3.5 6.1 0.00 0.00 0.00 58 1025.0
20260510183801 63 98 1.7 2.6 0.00 0.00 0.00 57 1024.8
20260510183256 62 130 3.5 3.5 0.00 0.00 0.00 56 1024.8
20260510182752 64 94 3.5 7.8 0.00 0.00 0.00 56 1024.9
20260510182248 64 108 4.3 6.1 0.00 0.00 0.00 56 1025.3
20260510181745 64 129 2.6 5.2 0.00 0.00 0.00 54 1025.1
20260510181242 62 73 0.9 6.1 0.00 0.00 0.00 61 1025.0
20260510180738 62 13 0.9 3.5 0.00 0.00 0.00 61 1025.1
20260510180236 62 101 3.5 8.7 0.00 0.00 0.00 64 1025.0
20260510175732 61 126 2.6 6.1 0.00 0.00 0.00 62 1025.3
20260510175228 60 125 0.9 3.5 0.00 0.00 0.00 64 1025.3
20260510174725 61 65 4.3 7.0 0.00 0.00 0.00 65 1025.3
20260510174223 61 137 6.1 7.8 0.00 0.00 0.00 65 1025.4
20260510173718 61 83 7.8 8.7 0.00 0.00 0.00 67 1025.3
20260510173214 60 43 3.5 7.0 0.00 0.00 0.00 67 1025.4
20260510172710 59 131 5.2 7.8 0.00 0.00 0.00 66 1025.5
20260510172206 58 83 6.1 8.7 0.00 0.00 0.00 70 1025.5
20260510171703 59 69 5.2 7.0 0.00 0.00 0.00 71 1025.7
20260510171200 59 65 6.1 8.7 0.00 0.00 0.00 70 1025.4
20260510170657 59 49 0.9 7.0 0.00 0.00 0.00 69 1025.5
20260510170153 59 73 2.6 7.0 0.00 0.00 0.00 70 1025.5
20260510165650 59 71 6.1 9.6 0.00 0.00 0.00 71 1025.4
20260510165145 58 78 5.2 7.0 0.00 0.00 0.00 72 1025.6
20260510164643 58 74 5.2 7.0 0.00 0.00 0.00 74 1025.4
20260510164140 57 88 2.6 3.5 0.00 0.00 0.00 72 1025.6
20260510163635 57 108 4.3 6.1 0.00 0.00 0.00 74 1025.5
20260510163132 57 76 2.6 5.2 0.00 0.00 0.00 74 1025.5
20260510162631 57 127 0.9 5.2 0.00 0.00 0.00 71 1025.7
20260510162128 57 136 1.7 2.6 0.00 0.00 0.00 70 1025.4
20260510161624 59 145 0.9 3.5 0.00 0.00 0.00 69 1025.5
20260510161121 59 16 0.0 1.7 0.00 0.00 0.00 71 1025.7
20260510160618 59 126 0.9 3.5 0.00 0.00 0.00 69 1025.3
20260510160118 58 130 1.7 5.2 0.00 0.00 0.00 70 1025.5
20260510155615 58 89 2.6 5.2 0.00 0.00 0.00 71 1025.5
20260510155111 58 135 3.5 3.5 0.00 0.00 0.00 70 1025.5
20260510154606 58 77 1.7 3.5 0.00 0.00 0.00 72 1025.6
20260510154102 57 63 1.7 5.2 0.00 0.00 0.00 74 1025.7
20260510153557 56 86 2.6 2.6 0.00 0.00 0.00 76 1025.6
20260510153054 55 84 5.2 6.1 0.00 0.00 0.00 78 1025.6
20260510152551 56 72 3.5 5.2 0.00 0.00 0.00 81 1025.6
20260510152047 55 101 1.7 3.5 0.00 0.00 0.00 81 1025.5
20260510151544 55 78 1.7 3.5 0.00 0.00 0.00 79 1025.5
20260510151042 55 70 4.3 5.2 0.00 0.00 0.00 80 1025.5
20260510150536 55 81 2.6 5.2 0.00 0.00 0.00 81 1025.4
20260510150033 55 74 0.9 0.9 0.00 0.00 0.00 79 1025.3
20260510145529 55 37 0.0 0.9 0.00 0.00 0.00 81 1025.5
20260510145026 55 57 0.9 1.7 0.00 0.00 0.00 82 1025.4
20260510144523 55 56 0.0 1.7 0.00 0.00 0.00 81 1025.5
20260510144019 55 49 1.7 1.7 0.00 0.00 0.00 81 1025.5
20260510143514 55 44 0.0 2.6 0.00 0.00 0.00 82 1025.3
20260510143011 54 343 1.7 1.7 0.00 0.00 0.00 83 1025.5
20260510142508 54 14 1.7 1.7 0.00 0.00 0.00 83 1025.5
20260510142004 54 64 0.9 1.7 0.00 0.00 0.00 83 1025.4
20260510141501 54 58 0.9 2.6 0.00 0.00 0.00 83 1025.4
20260510140958 54 23 0.9 2.6 0.00 0.00 0.00 83 1025.4
20260510140454 54 9 0.9 1.7 0.00 0.00 0.00 82 1025.3
20260510135954 54 80 0.0 0.0 0.00 0.00 0.00 82 1025.3
20260510135449 55 66 0.0 0.9 0.00 0.00 0.00 82 1025.0
20260510134947 55 78 1.7 2.6 0.00 0.00 0.00 81 1025.0
20260510134443 55 22 0.0 0.0 0.00 0.00 0.00 80 1025.0
20260510133940 55 107 0.0 0.0 0.00 0.00 0.00 81 1025.0
20260510133436 54 121 0.0 0.0 0.00 0.00 0.00 82 1024.8
20260510132932 54 116 0.0 0.0 0.00 0.00 0.00 84 1024.8
20260510132430 53 200 0.0 0.0 0.00 0.00 0.00 87 1024.6
20260510131926 52 153 0.0 0.0 0.00 0.00 0.00 88 1024.7
20260510131424 52 149 0.0 0.0 0.00 0.00 0.00 88 1024.7
20260510130920 52 169 0.0 0.0 0.00 0.00 0.00 88 1024.6
20260510130417 52 186 0.0 0.0 0.00 0.00 0.00 88 1024.7
20260510125915 52 243 0.0 0.0 0.00 0.14 0.14 88 1024.6
20260510125410 52 239 0.0 0.0 0.00 0.14 0.14 88 1024.3
20260510124908 52 237 0.0 0.9 0.00 0.14 0.14 88 1024.4
20260510124404 52 224 0.0 0.9 0.00 0.14 0.14 88 1024.6
20260510123900 52 216 0.0 1.7 0.00 0.14 0.14 89 1024.3
20260510123356 51 244 0.9 0.9 0.00 0.14 0.14 89 1024.4
20260510122852 51 248 0.0 0.0 0.00 0.14 0.14 90 1024.4
20260510122348 51 248 0.0 0.0 0.00 0.14 0.14 90 1024.2
20260510121844 51 237 0.9 1.7 0.00 0.14 0.14 90 1024.3
20260510121342 51 240 1.7 1.7 0.00 0.14 0.14 91 1024.2
20260510120839 51 345 0.0 0.0 0.00 0.14 0.14 92 1024.1
20260510120336 51 2 0.0 0.0 0.00 0.14 0.14 92 1024.1
20260510115832 51 357 0.0 0.0 0.00 0.14 0.14 92 1023.9
20260510115329 51 2 0.0 0.0 0.00 0.14 0.14 92 1024.0
20260510114824 51 354 0.0 0.0 0.00 0.14 0.14 92 1024.0
20260510114322 51 349 0.0 0.0 0.00 0.14 0.14 92 1024.0
20260510113817 51 338 0.0 0.0 0.00 0.14 0.14 92 1023.9
20260510113314 51 341 0.9 0.9 0.00 0.14 0.14 92 1024.1
20260510112811 51 333 0.0 1.7 0.00 0.14 0.14 91 1024.2
20260510112307 51 345 0.0 0.0 0.00 0.14 0.14 91 1023.9
20260510111803 51 8 0.0 0.0 0.00 0.14 0.14 91 1024.2
20260510111300 51 21 0.0 0.0 0.00 0.14 0.14 91 1023.7
20260510110800 51 24 0.0 0.0 0.00 0.14 0.14 91 1023.9
20260510110258 51 45 0.0 0.0 0.00 0.14 0.14 91 1023.9
20260510105758 51 37 0.0 0.0 0.00 0.14 0.14 91 1024.0
20260510105253 51 2 0.0 0.0 0.00 0.14 0.14 91 1023.9
20260510104749 50 266 0.0 0.0 0.00 0.14 0.14 92 1023.7
20260510104247 51 8 0.0 0.0 0.00 0.14 0.14 92 1024.0
20260510103743 51 9 0.0 0.0 0.00 0.14 0.14 92 1024.0
20260510103240 51 341 0.9 0.9 0.00 0.14 0.14 92 1024.1
20260510102740 51 328 0.9 1.7 0.00 0.14 0.14 92 1024.2
20260510102236 51 334 0.9 1.7 0.00 0.14 0.14 92 1024.1
20260510101734 50 326 0.0 0.9 0.00 0.14 0.14 92 1023.9
20260510101232 51 334 0.0 0.9 0.00 0.14 0.14 92 1024.1
20260510100727 50 318 0.0 0.0 0.00 0.14 0.14 92 1024.0
20260510100227 50 326 0.0 0.0 0.00 0.14 0.14 92 1023.9
20260510095727 50 341 0.0 0.9 0.00 0.14 0.14 92 1023.7
20260510095222 50 338 0.9 1.7 0.00 0.14 0.14 91 1023.6
20260510094721 51 1 1.7 1.7 0.00 0.14 0.14 91 1024.0
20260510094217 51 327 0.9 0.9 0.00 0.14 0.14 91 1024.1
20260510093713 51 344 0.0 3.5 0.00 0.14 0.14 91 1023.9
20260510093210 51 339 1.7 3.5 0.00 0.14 0.14 90 1024.1
20260510092707 51 343 3.5 5.2 0.00 0.14 0.14 91 1023.6
20260510092202 51 345 3.5 5.2 0.00 0.14 0.14 91 1023.9
20260510091658 51 344 2.6 3.5 0.00 0.14 0.14 91 1023.9
20260510091154 51 337 1.7 5.2 0.00 0.14 0.14 91 1023.7
20260510090651 51 350 1.7 6.1 0.00 0.14 0.14 90 1023.6
20260510090148 51 351 5.2 7.0 0.00 0.14 0.14 90 1023.6
20260510085643 51 337 3.5 8.7 0.00 0.14 0.14 89 1023.5
20260510085138 51 352 6.1 8.7 0.00 0.14 0.14 89 1023.4
20260510084635 51 354 4.3 7.8 0.00 0.14 0.14 90 1023.4
20260510084132 51 349 3.5 6.1 0.00 0.14 0.14 91 1023.6
20260510083628 51 14 2.6 5.2 0.00 0.14 0.14 91 1023.6
20260510083125 51 359 3.5 5.2 0.00 0.14 0.14 91 1023.7
20260510082621 51 338 3.5 3.5 0.00 0.14 0.14 91 1023.7
20260510082118 51 346 2.6 3.5 0.00 0.14 0.14 91 1023.2
20260510081617 51 357 2.6 7.8 0.00 0.14 0.14 91 1023.5
20260510081114 51 349 5.2 7.0 0.00 0.14 0.14 91 1023.2
20260510080613 51 348 3.5 7.0 0.00 0.14 0.14 91 1022.9
20260510080110 51 3 5.2 7.0 0.00 0.14 0.14 91 1022.9
20260510075607 51 357 5.2 9.6 0.00 0.14 0.14 90 1023.0
20260510075104 51 9 5.2 7.0 0.00 0.14 0.14 90 1022.8
20260510074601 51 12 5.2 7.8 0.00 0.14 0.14 90 1022.7
20260510074057 51 22 3.5 9.6 0.00 0.14 0.14 90 1022.7
20260510073553 51 343 3.5 7.0 0.00 0.14 0.14 90 1022.9
20260510073050 51 6 7.8 7.8 0.00 0.14 0.14 90 1023.0
20260510072547 51 25 6.1 7.0 0.00 0.14 0.14 90 1022.7
20260510072042 51 9 6.1 11.3 0.00 0.14 0.14 91 1022.8
20260510071539 51 26 7.8 11.3 0.00 0.14 0.14 91 1022.6
20260510071037 51 9 9.6 12.2 0.07 0.14 0.14 91 1022.7
20260510070534 51 65 8.7 12.2 0.07 0.14 0.14 92 1022.6
20260510070031 51 350 7.0 11.3 0.00 0.13 0.13 92 1022.3
20260510065527 50 4 8.7 13.0 0.09 0.13 0.13 91 1022.2
20260510065023 50 18 9.6 16.5 0.24 0.13 0.13 91 1022.3
20260510064520 50 7 12.2 18.2 0.50 0.11 0.11 91 1022.2
20260510064016 50 9 10.4 15.6 0.52 0.09 0.09 90 1022.1
20260510063513 51 0 15.6 19.1 0.07 0.01 0.01 86 1022.1
20260510063011 55 8 11.3 20.9 0.00 0.00 0.00 74 1021.9
20260510062506 56 6 15.6 19.1 0.00 0.00 0.00 66 1022.0
20260510062001 56 26 12.2 19.1 0.00 0.00 0.00 66 1021.9
20260510061458 56 19 9.6 14.8 0.00 0.00 0.00 66 1021.8
20260510060955 56 358 14.8 16.5 0.00 0.00 0.00 65 1022.0
20260510060452 56 19 13.9 20.9 0.00 0.00 0.00 65 1021.9
20260510055948 56 359 10.4 19.1 0.00 0.00 0.00 64 1021.3
20260510055444 56 13 12.2 18.2 0.00 0.00 0.00 64 1021.1
20260510054942 56 10 13.9 20.9 0.00 0.00 0.00 63 1020.6
20260510054437 57 357 15.6 26.1 0.00 0.00 0.00 62 1020.1
20260510053932 57 9 16.5 27.8 0.00 0.00 0.00 62 1019.7
20260510053428 57 359 14.8 27.8 0.00 0.00 0.00 61 1019.6
20260510052924 57 8 13.9 25.2 0.00 0.00 0.00 60 1019.4
20260510052420 57 359 20.9 26.1 0.00 0.00 0.00 60 1019.6
20260510051917 58 281 10.4 20.0 0.00 0.00 0.00 60 1019.4
20260510051413 58 307 13.9 20.0 0.00 0.00 0.00 60 1019.3
20260510050909 58 335 18.2 22.6 0.00 0.00 0.00 59 1019.3
20260510050406 58 336 14.8 26.1 0.00 0.00 0.00 59 1019.2
20260510045903 58 341 12.2 22.6 0.00 0.00 0.00 59 1019.3
20260510045401 58 344 12.2 21.7 0.00 0.00 0.00 59 1019.3
20260510044857 58 350 9.6 18.2 0.00 0.00 0.00 58 1019.3
20260510044354 58 264 11.3 19.1 0.00 0.00 0.00 57 1019.1
20260510043851 59 301 12.2 21.7 0.00 0.00 0.00 58 1019.0
20260510043346 59 336 12.2 20.0 0.00 0.00 0.00 57 1018.9
20260510042845 59 340 12.2 16.5 0.00 0.00 0.00 57 1018.7
20260510042340 59 336 8.7 15.6 0.00 0.00 0.00 57 1018.4
20260510041837 59 329 9.6 21.7 0.00 0.00 0.00 57 1018.0
20260510041334 59 333 12.2 18.2 0.00 0.00 0.00 56 1018.2
20260510040832 60 358 9.6 13.9 0.00 0.00 0.00 56 1018.0
20260510040328 60 342 11.3 18.2 0.00 0.00 0.00 55 1017.8
20260510035823 60 310 9.6 13.9 0.00 0.00 0.00 55 1017.5
20260510035320 61 356 10.4 14.8 0.00 0.00 0.00 54 1017.6
20260510034815 61 326 8.7 14.8 0.00 0.00 0.00 53 1017.7
20260510034313 62 345 9.6 14.8 0.00 0.00 0.00 52 1017.2
20260510033809 63 310 7.8 13.0 0.00 0.00 0.00 50 1017.1
20260510033307 64 348 7.8 13.0 0.00 0.00 0.00 45 1016.9
20260510032803 64 336 5.2 7.8 0.00 0.00 0.00 43 1016.2
20260510032300 63 341 1.7 3.5 0.00 0.00 0.00 42 1015.6
20260510031755 63 331 0.0 0.9 0.00 0.00 0.00 43 1015.2
20260510031252 64 294 0.0 0.0 0.00 0.00 0.00 44 1015.1
20260510030751 64 284 0.9 0.9 0.00 0.00 0.00 41 1015.0
20260510030248 63 274 0.0 0.9 0.00 0.00 0.00 42 1014.5
20260510025745 63 318 0.0 0.9 0.00 0.00 0.00 44 1014.5
20260510025243 64 321 0.0 0.0 0.00 0.00 0.00 43 1014.2
20260510024739 64 321 0.0 0.0 0.00 0.00 0.00 42 1014.2
20260510024236 65 322 0.0 0.0 0.00 0.00 0.00 41 1014.2
20260510023732 66 358 0.9 1.7 0.00 0.00 0.00 38 1014.0
20260510023229 66 9 1.7 2.6 0.00 0.00 0.00 38 1013.7
20260510022726 66 46 0.0 1.7 0.00 0.00 0.00 38 1013.6
20260510022225 67 58 0.0 0.0 0.00 0.00 0.00 38 1013.6
20260510021720 67 63 0.9 1.7 0.00 0.00 0.00 36 1013.5
20260510021218 68 69 0.9 1.7 0.00 0.00 0.00 36 1013.5
20260510020713 68 74 0.9 1.7 0.00 0.00 0.00 35 1013.4
20260510020208 69 22 0.9 2.6 0.00 0.00 0.00 34 1013.1
20260510015704 70 11 1.7 2.6 0.00 0.00 0.00 31 1013.1
20260510015201 70 36 0.0 1.7 0.00 0.00 0.00 31 1012.8
20260510014701 71 314 0.0 0.0 0.00 0.00 0.00 32 1012.9
20260510014159 73 99 0.0 1.7 0.00 0.00 0.00 28 1012.7
20260510013654 72 135 0.0 1.7 0.00 0.00 0.00 27 1012.6
20260510013150 73 193 2.6 7.0 0.00 0.00 0.00 27 1012.3
20260510012649 73 130 6.1 8.7 0.00 0.00 0.00 27 1012.0
20260510012145 73 84 7.0 11.3 0.00 0.00 0.00 27 1011.9
20260510011640 73 110 7.8 9.6 0.00 0.00 0.00 28 1012.3
20260510011136 72 151 5.2 8.7 0.00 0.00 0.00 32 1012.9
20260510010632 73 97 2.6 7.0 0.00 0.00 0.00 31 1013.1
20260510010130 73 261 3.5 5.2 0.00 0.00 0.00 28 1013.4
20260510005625 72 42 0.0 7.0 0.00 0.00 0.00 31 1013.6
20260510005123 72 34 2.6 2.6 0.00 0.00 0.00 31 1013.5
20260510004621 72 16 5.2 7.8 0.00 0.00 0.00 31 1013.4
20260510004119 72 346 4.3 5.2 0.00 0.00 0.00 33 1013.3
20260510003615 72 15 4.3 7.0 0.00 0.00 0.00 33 1013.1
20260510003111 73 1 3.5 8.7 0.00 0.00 0.00 32 1013.0
20260510002606 73 358 6.1 11.3 0.00 0.00 0.00 32 1013.1
20260510002103 72 13 5.2 7.8 0.00 0.00 0.00 32 1012.7
20260510001600 72 70 7.0 13.0 0.00 0.00 0.00 32 1012.6
20260510001059 73 23 8.7 12.2 0.00 0.00 0.00 32 1012.6
20260510000559 73 59 7.8 14.8 0.00 0.00 0.00 32 1012.6
20260510000056 73 356 8.7 12.2 0.00 0.00 0.00 31 1013.0
20260509235553 74 342 2.6 5.2 0.00 0.00 0.00 30 1012.7
20260509235049 75 332 5.2 7.8 0.00 0.00 0.00 28 1012.3
20260509234545 75 274 11.3 13.9 0.00 0.00 0.00 26 1012.0
20260509234044 75 356 7.0 11.3 0.00 0.00 0.00 26 1012.3
20260509233541 75 5 11.3 16.5 0.00 0.00 0.00 26 1012.2
20260509233038 75 1 10.4 13.9 0.00 0.00 0.00 25 1011.8
20260509232535 76 7 9.6 14.8 0.00 0.00 0.00 25 1011.8
20260509232031 76 28 11.3 19.1 0.00 0.00 0.00 25 1011.6
20260509231528 77 15 14.8 20.0 0.00 0.00 0.00 25 1011.3
20260509231026 78 0 4.3 7.0 0.00 0.00 0.00 21 1011.1
20260509230522 78 5 3.5 7.0 0.00 0.00 0.00 20 1010.8
20260509230019 78 340 3.5 11.3 0.00 0.00 0.00 21 1010.2
20260509225514 77 85 2.6 11.3 0.00 0.00 0.00 21 1010.4
20260509225010 78 7 3.5 13.0 0.00 0.00 0.00 19 1010.5
20260509224506 77 329 4.3 13.0 0.00 0.00 0.00 22 1010.9